X  Close Clear throughout the day.
Conditions Temperature Feels Precipitation Wind Wind Direction UV index Pressure
19:00 clear-day Clear 27° - 23-38 km/h SW SW - 1009,4
20:00 clear-night Clear 24° - 20-41 km/h SW SW - 1010,7
21:00 clear-night Clear 22° - 16-33 km/h SW SW - 1011,8
22:00 clear-night Clear 19° - 11-19 km/h WSW WSW - 1012,8
23:00 clear-night Clear 17° - 7-9 km/h WSW WSW - 1013,3
00:00 clear-night Clear 16° - 5-8 km/h SW SW - 1013,6
01:00 clear-night Clear 16° - 5-9 km/h West West - 1013,1
02:00 clear-night Clear 15° - 5-10 km/h West West - 1012,6
03:00 partly-cloudy-night Partly Cloudy 14° - 4-9 km/h SW SW - 1012,5
04:00 partly-cloudy-night Mostly Cloudy 13° - 4-6 km/h ENE ENE - 1012,6
05:00 partly-cloudy-night Mostly Cloudy 13° - 3-5 km/h West West - 1012,3
06:00 partly-cloudy-night Mostly Cloudy 14° - 3-5 km/h West West - 1012,7
07:00 partly-cloudy-day Mostly Cloudy 16° - 3-6 km/h WNW WNW - 1013,2
08:00 partly-cloudy-day Partly Cloudy 18° - 4-6 km/h NW NW uv-2 1013,4
09:00 clear-day Clear 22° - 4-6 km/h East Easterly uv-4 1013,0
10:00 clear-day Clear 26° - 5-5 km/h SSE SSE uv-8 1012,5
11:00 clear-day Clear 29° - 7-7 km/h South South uv-11 1011,8
12:00 clear-day Clear 31° - 10-10 km/h SSW SSW uv-13 1010,9
13:00 clear-day Clear 33° - 13-13 km/h SW SW uv-13 1010,0
14:00 clear-day Clear 34° - 17-17 km/h SW SW uv-13 1009,0
15:00 clear-day Clear 34° - 20-20 km/h SW SW uv-10 1008,2
16:00 clear-day Clear 34° - 23-23 km/h SW SW uv-6 1007,6
17:00 clear-day Clear 33° - 25-25 km/h SW SW uv-3 1007,6
18:00 clear-day Clear 31° - 25-27 km/h SW SW uv-1 1008,4
19:00 clear-day Clear 27° - 25-38 km/h SW SW - 1009,7
20:00 clear-night Clear 24° - 23-43 km/h SW SW - 1010,9
21:00 clear-night Clear 21° - 20-40 km/h SW SW - 1012,0
22:00 clear-night Clear 19° - 16-33 km/h SW SW - 1013,1
23:00 clear-night Clear 17° - 12-26 km/h SW SW - 1013,7
00:00 clear-night Clear 16° - 9-21 km/h SW SW - 1013,7
01:00 clear-night Clear 15° - 7-16 km/h SW SW - 1013,3
02:00 clear-night Clear 14° - 5-13 km/h SW SW - 1013,1
03:00 clear-night Clear 13° - 4-11 km/h WSW WSW - 1013,2
04:00 clear-night Clear 13° - 4-11 km/h WSW WSW - 1013,4
05:00 clear-night Clear 13° - 4-11 km/h WSW WSW - 1013,6
06:00 clear-night Clear 14° - 5-12 km/h South South - 1014,0
07:00 clear-day Clear 16° - 6-14 km/h ESE ESE - 1014,4
08:00 clear-day Clear 19° - 7-15 km/h East Easterly uv-2 1014,3
09:00 clear-day Clear 23° - 8-14 km/h ESE ESE uv-4 1013,6
10:00 clear-day Clear 26° - 8-13 km/h SE SE uv-8 1012,4
11:00 clear-day Clear 30° 0.01 mm 1% 8-11 km/h SSE SSE uv-11 1011,0
12:00 clear-day Clear 32° - 10-10 km/h South South uv-13 1010,2
13:00 clear-day Clear 34° - 11-11 km/h SSW SSW uv-13 1009,4
14:00 clear-day Clear 35° - 14-14 km/h SSW SSW uv-13 1008,5
15:00 clear-day Clear 35° - 18-18 km/h SW SW uv-10 1007,5
16:00 clear-day Clear 36° - 24-24 km/h SW SW uv-6 1006,7
17:00 clear-day Clear 35° - 27-27 km/h SW SW uv-3 1006,5
18:00 clear-day Clear 32° - 26-31 km/h SW SW uv-1 1007,2
19:00 clear-day Clear 29° - 24-39 km/h SW SW - 1008,5